"Pseudo-MPEC" for P12pfvQ

Created 2026 Aug 13 16:35:19 UT using Find_Orb

Click here for an explanation of pseudo-MPECs

 
 Astrometry: 
     P12pfvQ*0C2026 08 12.46697922 57 48.852-06 46 55.61   ~8CD5 20.42wXNEOCPF51
     P12pfvQ 0C2026 08 12.47914422 58 00.756-06 47 04.94   ~8CD5 21.27wXNEOCPF51
     P12pfvQ 0C2026 08 12.50398522 58 25.083-06 47 23.20   ~8CD5x20.58wXNEOCPF51
     P12pfvQ 0C2026 08 12.55479822 59 14.163-06 47 57.69   ~8CKo 21.60GVNEOCPF51
     P12pfvQ 0C2026 08 12.55545022 59 14.794-06 47 58.14   ~8CKo 20.22GVNEOCPF51
     P12pfvQ KC2026 08 13.04360223 07 40.64 -06 54 55.8    ~8DFZ 21.1 GXNEOCPL01
     P12pfvQ KC2026 08 13.05321923 07 48.99 -06 55 00.5    ~8DFZ 21.0 GXNEOCPL01
     P12pfvQ 1C2026 08 13.07631023 08 09.737-06 55 32.10   ~8D5Z 20.2 GXNEOCP033
     P12pfvQ 1C2026 08 13.07755023 08 10.856-06 55 32.40   ~8D5Z 20.5 GXNEOCP033
     P12pfvQ 1C2026 08 13.08000023 08 12.977-06 55 34.40   ~8D5Z 20.4 GXNEOCP033

Station data:
(033) Karl Schwarzschild Observatory, Tautenburg  (N50.980139 E11.711240)
   Germany.  Observer B. Stecklum. 1.34-m f/3 Schmidt + CCD.
(F51) Pan-STARRS 1, Haleakala  (N20.707234 W156.255910)  US/Hawaii.
   Observers J. Herman, T. Lowe, P. Minguez, A. Schultz, I. Smith. Measurers
   K. Chambers, T. de Boer, J. Fairlamb, H. Gao, M. Huber, C.-C. Lin, E.
   Magnier, Y. Ramanjooloo, R. Wainscoat, R. Weryk. 1.8-m Ritchey-Chrétien +
   CCD.
(L01) Višnjan Observatory, Tičan  (N45.290897 E13.749300)  Croatia.
   Observers K. Korlević, L. Poropat. Measurer K. Korlevic. 1.0-m f/2.9
   reflector + CCD.

Orbital elements:  P12pfvQ
   Perihelion 2026 Jul 23.913710 +/- 0.173 TT = 21:55:44.5 (JD 2461245.413710)
Epoch 2026 Aug 13.0 TT = JDT 2461265.5   Earth MOID: 0.0093   Ma: 0.0267
M   8.138656243 +/- 0.08            (J2000 ecliptic)             AutoNEOCP
n   0.405184644 +/- 0.00131         Peri.  157.674084 +/- 0.21
a   1.808703574 +/- 0.00389         Node   139.962252 +/- 0.0037
e   0.43997734 +/- 0.00116          Incl.    2.511305 +/- 0.016
P   2.432/888.467d         H 27.60  G  0.15   U  8.3
q 1.012914981 +/- 0.000615    Q 2.604492167 +/- 0.00763
9 of 10 observations 2026 Aug. 12-13 (14.7 hr); mean residual 0".31
Residuals in arcseconds: 
260812 F51  .26+  .03+    260812 F51  .03+  .09-    260813 033  .19+  .05+    
260812 F51  .30-  .09+    260813 L01  .19-  .22+    260813 033  .05+  .70-    
260812 F51( 1.3+  .21+)   260813 L01  .35+  .73+    
260812 F51  .01+  .05-    260813 033  .41-  .29-    

Ephemerides (geocentric):
Date (UTC) HH   RA             Dec           delta  r     elong  mag " sig PA
---- --------  ------------   ------------  ------ ------ -----  --- --------
2026 08 13 17  23 17 28.761   -06 56 28.73  .02975 1.0397 153.0 21.2 14.7 101
2026 08 13 18  23 18 02.430   -06 56 47.50  .02990 1.0398 152.9 21.3 16.0 101
2026 08 13 19  23 18 35.758   -06 57 05.97  .03005 1.0399 152.8 21.3 17.4 100
2026 08 13 20  23 19 08.751   -06 57 24.15  .03020 1.0400 152.7 21.3 18.8  99
2026 08 13 21  23 19 41.413   -06 57 42.05  .03035 1.0401 152.7 21.3 20.2  99
2026 08 13 22  23 20 13.748   -06 57 59.67  .03050 1.0402 152.6 21.3 21.7  99
2026 08 13 23  23 20 45.761   -06 58 17.03  .03065 1.0404 152.5 21.3 23.2  98
2026 08 14 00  23 21 17.455   -06 58 34.12  .03080 1.0405 152.4 21.3 24.7  98
2026 08 14 01  23 21 48.835   -06 58 50.96  .03095 1.0406 152.3 21.4 26.3  98
2026 08 14 02  23 22 19.905   -06 59 07.54  .03110 1.0407 152.2 21.4 27.9  97
2026 08 14 03  23 22 50.669   -06 59 23.88  .03125 1.0408 152.2 21.4 29.5  97
2026 08 14 04  23 23 21.131   -06 59 39.97  .03140 1.0409 152.1 21.4 31.1  97
2026 08 14 05  23 23 51.295   -06 59 55.82  .03155 1.0410 152.0 21.4 32.8  97
2026 08 14 06  23 24 21.165   -07 00 11.44  .03170 1.0411 151.9 21.4 34.5  96
2026 08 14 07  23 24 50.744   -07 00 26.84  .03185 1.0412 151.8 21.4 36.3  96
2026 08 14 08  23 25 20.037   -07 00 42.01  .03200 1.0413 151.8 21.4 38.0  96
2026 08 14 09  23 25 49.048   -07 00 56.96  .03215 1.0414 151.7 21.5 39.8  96
2026 08 14 10  23 26 17.779   -07 01 11.70  .03230 1.0415 151.6 21.5 41.6  96
2026 08 14 11  23 26 46.234   -07 01 26.23  .03245 1.0416 151.6 21.5 43.4  96
2026 08 14 12  23 27 14.417   -07 01 40.56  .03261 1.0417 151.5 21.5 45.2  95
2026 08 14 13  23 27 42.331   -07 01 54.68  .03276 1.0419 151.4 21.5 47.1  95
2026 08 14 14  23 28 09.980   -07 02 08.61  .03291 1.0420 151.3 21.5 48.9  95
2026 08 14 15  23 28 37.367   -07 02 22.34  .03306 1.0421 151.3 21.5 50.8  95
2026 08 14 16  23 29 04.496   -07 02 35.88  .03321 1.0422 151.2 21.5 52.7  95
2026 08 14 17  23 29 31.369   -07 02 49.24  .03337 1.0423 151.1 21.6 54.7  95
2026 08 14 18  23 29 57.990   -07 03 02.42  .03352 1.0424 151.1 21.6 56.6  95
2026 08 14 19  23 30 24.361   -07 03 15.42  .03367 1.0425 151.0 21.6 58.5  95
2026 08 14 20  23 30 50.487   -07 03 28.24  .03383 1.0426 151.0 21.6 60.5  95
2026 08 14 21  23 31 16.370   -07 03 40.89  .03398 1.0427 150.9 21.6 62.5  95
2026 08 14 22  23 31 42.014   -07 03 53.38  .03413 1.0428 150.8 21.6 64.5  94
2026 08 14 23  23 32 07.420   -07 04 05.70  .03428 1.0430 150.8 21.6 66.5  94
2026 08 15 00  23 32 32.592   -07 04 17.86  .03444 1.0431 150.7 21.6 68.5  94
2026 08 15 01  23 32 57.533   -07 04 29.86  .03459 1.0432 150.7 21.6 70.5  94
2026 08 15 02  23 33 22.246   -07 04 41.71  .03475 1.0433 150.6 21.7 72.5  94
2026 08 15 03  23 33 46.733   -07 04 53.40  .03490 1.0434 150.5 21.7 74.5  94
2026 08 15 04  23 34 10.998   -07 05 04.95  .03505 1.0435 150.5 21.7 76.6  94
2026 08 15 05  23 34 35.042   -07 05 16.35  .03521 1.0436 150.4 21.7 78.6  94
2026 08 15 06  23 34 58.869   -07 05 27.61  .03536 1.0437 150.4 21.7 80.7  94
2026 08 15 07  23 35 22.482   -07 05 38.73  .03552 1.0438 150.3 21.7 82.8  94
2026 08 15 08  23 35 45.882   -07 05 49.71  .03567 1.0440 150.3 21.7 84.9  94
2026 08 15 09  23 36 09.072   -07 06 00.56  .03583 1.0441 150.2 21.7 86.9  94
2026 08 15 10  23 36 32.056   -07 06 11.27  .03598 1.0442 150.2 21.7 89.0  94
2026 08 15 11  23 36 54.834   -07 06 21.85  .03614 1.0443 150.1 21.8 91.1  94
2026 08 15 12  23 37 17.411   -07 06 32.31  .03629 1.0444 150.1 21.8 93.2  94
2026 08 15 13  23 37 39.787   -07 06 42.64  .03645 1.0445 150.0 21.8 95.3  94
2026 08 15 14  23 38 01.966   -07 06 52.85  .03660 1.0446 150.0 21.8 97.4  94
2026 08 15 15  23 38 23.950   -07 07 02.94  .03676 1.0447 149.9 21.8  100  94
2026 08 15 16  23 38 45.741   -07 07 12.91  .03691 1.0449 149.9 21.8  102  93